Kenosha, WI

12:05 PM CDT on August 31, 2016 (GMT -0500)
Kenosha Regional

Weather History for KENW - February, 2014

Change the Weather History Date:

Wednesday, February 19, 2014

  Actual Average Record
Temperature  
Mean Temperature 36 °F -  
Max Temperature 42 °F 35 °F 57 °F (2016)
Min Temperature 30 °F 21 °F -9 °F (2015)
Degree Days  
Heating Degree Days 29    
Moisture  
Dew Point 26 °F    
Average Humidity 68    
Maximum Humidity 82    
Minimum Humidity 49    
Precipitation  
Precipitation 0.00 in - - ()
Sea Level Pressure  
Sea Level Pressure 29.86 in    
Wind  
Wind Speed 7 mph (WSW)    
Max Wind Speed 12 mph    
Max Gust Speed -    
Visibility 9 miles    
Events Snow    
Averages and records for this station are not official NWS values.
T = Trace of Precipitation, MM = Missing Value Source: NWS Daily Summary

Daily Weather History Graph

Daily Weather History Graph

Search for Another Location

Airport or City:

Trip Planner

Search our weather history database for the weather conditions in past years. The results will help you decide how hot, cold, wet, or windy it might be!

Date:

Astronomy

Feb. 19, 2014 Rise Set
Actual Time 6:42 AM CST 5:28 PM CST
Civil Twilight 6:14 AM CST 5:57 PM CST
Nautical Twilight 5:41 AM CST 6:30 PM CST
Astronomical Twilight 5:08 AM CST 7:03 PM CST
Moon 10:29 PM CST (2/19) 8:41 AM CST (2/19)
Length of Visible Light 11h 43m
Length of Day
10h 46m
Waning Gibbous, 79% of the Moon is Illuminated
Feb 19
Waning Gibbous
Feb 22
Last Quarter
Mar 1
New
Mar 8
First Quarter
Mar 16
Full

Hourly Weather History & Observations

Time (CST) Temp. Windchill Dew Point Humidity Pressure Visibility Wind Dir Wind Speed Gust Speed Precip Events Conditions
12:53 AM 30.0 °F 25.2 °F 25.0 °F 82% 29.65 in 10.0 mi West 4.6 mph - N/A   Clear
1:53 AM 34.0 °F 27.2 °F 26.1 °F 73% 29.66 in 10.0 mi WNW 8.1 mph - N/A   Mostly Cloudy
2:53 AM 34.0 °F 26.6 °F 26.1 °F 73% 29.67 in 10.0 mi NW 9.2 mph - N/A   Mostly Cloudy
3:53 AM 34.0 °F 29.8 °F 26.1 °F 73% 29.69 in 7.0 mi West 4.6 mph - 0.00 in Snow Light Snow
4:21 AM 34.0 °F 28.8 °F 27.0 °F 75% 29.69 in 10.0 mi WNW 5.8 mph - 0.00 in   Mostly Cloudy
4:53 AM 35.1 °F 30.1 °F 28.9 °F 78% 29.73 in 9.0 mi NW 5.8 mph - 0.00 in   Overcast
5:53 AM 34.0 °F 26.0 °F 28.0 °F 79% 29.77 in 8.0 mi West 10.4 mph - N/A   Partly Cloudy
6:53 AM 32.0 °F 23.6 °F 27.0 °F 82% 29.80 in 7.0 mi West 10.4 mph - N/A   Clear
7:53 AM 33.1 °F 25.5 °F 26.1 °F 75% 29.84 in 9.0 mi West 9.2 mph - N/A   Clear
8:53 AM 35.1 °F 29.3 °F 26.1 °F 70% 29.86 in 10.0 mi WNW 6.9 mph - N/A   Clear
9:53 AM 37.0 °F 31.0 °F 26.1 °F 65% 29.88 in 10.0 mi West 8.1 mph - N/A   Clear
10:53 AM 39.0 °F 32.8 °F 25.0 °F 57% 29.90 in 10.0 mi WNW 9.2 mph - N/A   Clear
11:53 AM 39.0 °F 31.8 °F 25.0 °F 57% 29.92 in 10.0 mi WSW 11.5 mph - N/A   Clear
12:53 PM 41.0 °F 35.2 °F 26.1 °F 55% 29.92 in 10.0 mi WSW 9.2 mph - N/A   Clear
1:53 PM 41.0 °F 35.8 °F 26.1 °F 55% 29.92 in 10.0 mi WSW 8.1 mph - N/A   Clear
2:53 PM 42.1 °F 36.1 °F 24.1 °F 49% 29.94 in 10.0 mi WSW 10.4 mph - N/A   Clear
3:53 PM 42.1 °F 36.6 °F 24.1 °F 49% 29.96 in 10.0 mi WSW 9.2 mph - N/A   Clear
4:53 PM 39.0 °F 32.8 °F 23.0 °F 53% 29.97 in 10.0 mi SW 9.2 mph - N/A   Clear
5:53 PM 37.9 °F 32.7 °F 23.0 °F 55% 29.97 in 10.0 mi SSW 6.9 mph - N/A   Clear
6:53 PM 35.1 °F 28.6 °F 24.1 °F 64% 29.97 in 10.0 mi SSW 8.1 mph - N/A   Clear
7:53 PM 33.1 °F 27.7 °F 24.1 °F 70% 29.97 in 10.0 mi SW 5.8 mph - N/A   Clear
8:53 PM 32.0 °F 24.8 °F 24.1 °F 73% 29.97 in 10.0 mi SSW 8.1 mph - N/A   Clear
9:53 PM 33.1 °F 25.5 °F 26.1 °F 75% 29.96 in 10.0 mi South 9.2 mph - N/A   Clear
10:53 PM 34.0 °F 27.2 °F 27.0 °F 75% 29.96 in 8.0 mi South 8.1 mph - N/A   Scattered Clouds
11:53 PM 34.0 °F 28.8 °F 28.0 °F 79% 29.93 in 8.0 mi SE 5.8 mph - N/A   Clear